"2014-10-20",00:01,14.96,13.586,15.06,13.59,13.814,14.97,82.3,-1.389,-1.039,365.8,386.6,-21.2,-0.499,0.,368.7,0,7999.,0.000,100,101.5573,6.183,7.763,5.767,7.48,240.67,4.511,5.59,243.262,0.4,15.029,15.022,14.835,14.507,14.536,13.903,13.813,-999.,-999.,14.482,-7.463,-0.544,-6.883,-11.37,0.661,0.694,0.69,0.75,0.666,0.677,0.711,0.737,0.683,0.,0.
"2014-10-20",00:02,15.01,13.583,15.09,13.58,13.818,14.97,82.2,-1.389,-1.015,369.8,386.7,-17.3,-0.499,0.,371.9,0,7999.,0.000,100,101.557,7.258,8.76,7.443,8.68,230.072,5.894,7.58,228.09,0.4,15.002,15.026,14.821,14.497,14.536,13.903,13.813,-999.,-999.,14.478,-7.434,-0.552,-6.872,-11.283,0.66,0.694,0.69,0.752,0.665,0.676,0.711,0.736,0.682,0.,0.
"2014-10-20",00:03,15.013,13.589,15.13,13.6,13.814,15.,82.2,-1.372,-1.009,367.5,386.4,-19.3,-0.499,0.,369.6,0,7999.,0.000,100,101.5586,7.596,8.39,7.249,8.32,237.462,5.272,7.12,238.46,0.4,15.009,15.022,14.835,14.494,14.545,13.906,13.813,-999.,-999.,14.475,-7.405,-0.559,-6.865,-11.201,0.661,0.693,0.691,0.749,0.666,0.676,0.711,0.736,0.682,0.,0.
"2014-10-20",00:04,14.96,13.586,15.06,13.59,13.798,14.97,82.3,-1.406,-1.033,358.2,386.2,-28.4,-0.499,0.,361.4,0,7999.,0.000,100,101.5606,5.896,7.138,5.553,6.98,238.539,4.204,5.18,238.069,0.4,15.009,15.022,14.828,14.494,14.549,13.903,13.809,-999.,-999.,14.485,-7.376,-0.57,-6.856,-11.125,0.66,0.692,0.692,0.748,0.666,0.676,0.712,0.737,0.683,0.,0.
"2014-10-20",00:05,14.931,13.579,15.04,13.59,13.781,14.94,82.9,-1.458,-1.051,365.,386.3,-21.7,-0.499,0.,368.1,0,7999.,0.000,100,101.5647,6.529,8.58,6.059,7.01,236.129,4.458,5.75,234.141,0.4,15.002,15.029,14.828,14.483,14.536,13.906,13.806,-999.,-999.,14.485,-7.347,-0.579,-6.846,-11.054,0.66,0.694,0.69,0.752,0.665,0.676,0.711,0.736,0.683,0.,0.
"2014-10-20",00:06,14.97,13.583,15.05,13.57,13.778,14.95,82.4,-1.452,-1.015,364.1,386.5,-22.8,-0.499,0.,366.6,0,7999.,0.000,100,101.5614,5.987,7.075,5.986,7.62,235.124,4.919,5.59,236.066,0.4,14.996,15.022,14.831,14.494,14.542,13.903,13.809,-999.,-999.,14.478,-7.317,-0.586,-6.837,-10.989,0.66,0.695,0.691,0.747,0.667,0.675,0.711,0.739,0.682,0.,0.
"2014-10-20",00:07,14.944,13.576,15.05,13.57,13.755,14.95,82.5,-1.463,-1.021,358.3,386.2,-28.3,-0.499,0.,361.4,0,7999.,0.000,100,101.5589,6.342,8.58,5.756,6.81,240.113,4.784,6.17,241.254,0.4,14.999,15.015,14.835,14.497,14.539,13.903,13.813,-999.,-999.,14.478,-7.289,-0.595,-6.826,-10.925,0.66,0.694,0.691,0.748,0.666,0.675,0.711,0.737,0.683,0.,0.
"2014-10-20",00:08,14.928,13.557,15.06,13.57,13.739,14.94,82.6,-1.486,-1.015,357.,385.8,-29.3,-0.499,0.,360.7,0,7999.,0.000,100,101.5556,6.642,8.14,6.699,8.34,243.464,4.899,7.44,244.554,0.4,14.999,15.021,14.825,14.494,14.545,13.906,13.813,-999.,-999.,14.478,-7.258,-0.604,-6.815,-10.87,0.66,0.694,0.69,0.748,0.666,0.676,0.711,0.737,0.683,0.,0.
"2014-10-20",00:09,14.872,13.53,15.,13.57,13.726,14.92,82.4,-1.509,-1.045,364.9,386.3,-21.9,-0.499,0.,367.3,0,7999.,0.000,100,101.5612,7.367,8.39,6.189,7.47,234.886,4.509,5.34,235.868,0.4,14.999,15.029,14.835,14.5,14.552,13.909,13.802,-999.,-999.,14.482,-7.232,-0.613,-6.803,-10.824,0.66,0.695,0.69,0.748,0.666,0.675,0.711,0.737,0.683,0.,0.
"2014-10-20",00:10,14.96,13.56,15.04,13.58,13.726,14.92,82.6,-1.492,-1.021,360.7,386.5,-26.3,-0.499,0.,362.9,0,7999.,0.000,100,101.5617,6.742,7.45,6.305,7.93,233.402,4.738,6.27,230.733,0.4,14.992,15.018,14.832,14.5,14.552,13.899,13.809,-999.,-999.,14.485,-7.202,-0.62,-6.791,-10.785,0.66,0.695,0.69,0.751,0.666,0.675,0.711,0.737,0.683,0.,0.
"2014-10-20",00:11,15.059,13.586,15.11,13.58,13.73,14.98,82.2,-1.486,-1.015,362.,386.4,-24.9,-0.499,0.,364.9,0,7999.,0.000,100,101.5615,7.175,8.39,6.413,7.77,234.926,5.041,5.92,236.333,0.4,15.003,15.015,14.838,14.5,14.545,13.903,13.813,-999.,-999.,14.478,-7.175,-0.629,-6.779,-10.756,0.661,0.693,0.691,0.748,0.666,0.675,0.712,0.737,0.682,0.,0.
"2014-10-20",00:12,15.019,13.583,15.06,13.58,13.72,14.98,82.3,-1.503,-1.045,362.5,386.4,-24.4,-0.499,0.,365.,0,7999.,0.000,100,101.5613,6.387,7.638,6.543,8.09,237.641,5.459,7.04,236.733,0.4,15.003,15.017,14.831,14.511,14.549,13.906,13.813,-999.,-999.,14.475,-7.146,-0.637,-6.767,-10.74,0.66,0.694,0.691,0.747,0.667,0.675,0.711,0.737,0.683,0.,0.
"2014-10-20",00:13,15.026,13.579,15.05,13.58,13.733,14.98,82.6,-1.509,-1.051,356.9,386.1,-29.7,-0.499,0.,360.1,0,7999.,0.000,100,101.5574,7.75,9.14,7.191,8.85,238.479,5.779,8.07,245.451,0.4,15.003,15.018,14.838,14.507,14.545,13.92,13.813,-999.,-999.,14.482,-7.119,-0.645,-6.755,-10.735,0.66,0.693,0.691,0.748,0.665,0.678,0.71,0.737,0.683,0.,0.
"2014-10-20",00:14,14.915,13.55,14.99,13.57,13.706,14.91,82.7,-1.543,-1.063,359.3,386.2,-27.4,-0.499,0.,362.4,0,7999.,0.000,100,101.5606,6.221,6.763,5.769,6.46,234.329,4.392,5.48,235.873,0.4,14.999,15.007,14.838,14.514,14.545,13.913,13.806,-999.,-999.,14.475,-7.09,-0.654,-6.742,-10.737,0.66,0.694,0.691,0.748,0.667,0.676,0.711,0.737,0.683,0.,0.
"2014-10-20",00:15,14.948,13.55,14.98,13.57,13.693,14.9,82.7,-1.549,-1.045,356.,385.9,-30.4,-0.499,0.,359.2,0,7999.,0.000,100,101.5572,7.171,9.26,6.356,7.64,242.672,5.097,5.98,244.061,0.4,15.003,15.01,14.835,14.498,14.545,13.913,13.809,-999.,-999.,14.482,-7.066,-0.661,-6.726,-10.737,0.66,0.693,0.691,0.748,0.667,0.675,0.711,0.735,0.683,0.,0.
"2014-10-20",00:16,14.882,13.53,14.97,13.59,13.684,14.88,82.9,-1.583,-1.045,351.8,385.4,-34.1,-0.499,0.,355.2,0,7999.,0.000,100,101.5527,7.208,9.26,6.601,8.54,236.934,4.662,5.98,234.482,0.4,15.003,15.01,14.838,14.504,14.549,13.913,13.809,-999.,-999.,14.478,-7.038,-0.667,-6.715,-10.743,0.659,0.694,0.691,0.747,0.668,0.676,0.711,0.737,0.683,0.,0.
"2014-10-20",00:17,14.823,13.511,14.93,13.54,13.698,14.85,82.8,-1.64,-1.051,349.6,385.5,-36.5,-0.499,0.,353.2,0,7999.,0.000,100,101.5561,6.608,7.825,5.798,7.75,229.202,4.505,6.21,232.121,0.4,15.003,15.013,14.831,14.51,14.542,13.92,13.806,-999.,-999.,14.475,-7.013,-0.675,-6.702,-10.748,0.66,0.693,0.69,0.749,0.667,0.675,0.711,0.736,0.683,0.,0.
"2014-10-20",00:18,14.947,13.517,14.95,13.53,13.668,14.84,82.9,-1.646,-1.033,348.6,385.4,-37.4,-0.499,0.,352.3,0,7999.,0.000,100,101.5551,6.704,8.14,6.646,7.53,231.932,5.479,6.82,233.865,0.4,15.003,15.014,14.835,14.507,14.536,13.913,13.813,-999.,-999.,14.482,-6.99,-0.683,-6.686,-10.752,0.659,0.695,0.691,0.748,0.666,0.675,0.712,0.736,0.683,0.,0.
"2014-10-20",00:19,14.911,13.511,14.97,13.53,13.664,14.86,83.1,-1.674,-1.039,347.8,385.,-37.8,-0.499,0.,351.4,0,7999.,0.000,100,101.557,6.121,8.08,6.059,7.22,237.671,4.807,5.64,238.936,0.4,14.999,15.01,14.835,14.504,14.532,13.906,13.809,-999.,-999.,14.485,-6.967,-0.691,-6.672,-10.763,0.66,0.693,0.691,0.748,0.665,0.677,0.711,0.737,0.683,0.,0.
"2014-10-20",00:20,14.843,13.504,14.95,13.53,13.639,14.86,82.9,-1.691,-1.045,354.4,385.3,-31.5,-0.499,0.,357.8,0,7999.,0.000,100,101.5567,5.333,6.638,5.701,7.13,235.794,4.967,5.89,234.938,0.4,15.003,15.006,14.838,14.5,14.532,13.916,13.813,-999.,-999.,14.489,-6.943,-0.697,-6.66,-10.783,0.66,0.693,0.691,0.749,0.666,0.675,0.711,0.736,0.684,0.,0.
"2014-10-20",00:21,14.836,13.501,14.89,13.5,13.595,14.8,83.,-1.68,-1.039,352.2,385.2,-33.6,-0.499,0.,355.1,0,7999.,0.000,100,101.5593,6.012,7.325,5.249,7.89,233.395,4.68,7.,233.261,0.4,14.999,15.007,14.835,14.494,14.529,13.913,13.813,-999.,-999.,14.489,-6.922,-0.704,-6.646,-10.811,0.66,0.693,0.691,0.748,0.666,0.674,0.711,0.736,0.682,0.,0.
"2014-10-20",00:22,14.856,13.504,14.9,13.5,13.575,14.81,83.3,-1.674,-1.015,345.3,385.1,-40.5,-0.499,0.,348.9,0,7999.,0.000,100,101.5575,5.667,7.263,5.41,7.21,236.926,4.745,6.52,235.137,0.4,14.996,15.007,14.832,14.497,14.526,13.906,13.816,-999.,-999.,14.485,-6.9,-0.712,-6.632,-10.851,0.66,0.694,0.69,0.751,0.665,0.675,0.711,0.736,0.683,0.,0.
"2014-10-20",00:23,14.803,13.498,14.86,13.5,13.596,14.79,83.2,-1.714,-1.045,343.9,384.7,-41.5,-0.499,0.,347.7,0,7999.,0.000,100,101.5607,6.521,7.7,6.017,7.81,237.473,4.67,5.62,237.332,0.4,14.986,15.001,14.838,14.491,14.542,13.913,13.816,-999.,-999.,14.492,-6.881,-0.719,-6.617,-10.902,0.66,0.693,0.691,0.747,0.666,0.675,0.711,0.738,0.683,0.,0.
"2014-10-20",00:24,14.708,13.442,14.82,13.5,13.566,14.73,83.4,-1.765,-1.051,336.5,384.,-48.2,-0.499,0.,341.2,0,7999.,0.000,100,101.5588,6.471,7.763,6.034,7.62,241.132,4.491,6.19,237.342,0.4,14.996,15.,14.838,14.497,14.532,13.909,13.813,-999.,-999.,14.489,-6.862,-0.725,-6.604,-10.962,0.661,0.693,0.69,0.749,0.666,0.675,0.711,0.738,0.683,0.,0.
"2014-10-20",00:25,14.731,13.435,14.77,13.45,13.534,14.71,83.6,-1.805,-1.015,338.4,384.4,-46.8,-0.499,0.,342.4,0,7999.,0.000,100,101.5594,6.117,6.95,5.261,6.4,239.536,3.631,4.95,240.815,0.4,14.986,15.007,14.835,14.494,14.529,13.91,13.813,-999.,-999.,14.492,-6.843,-0.732,-6.591,-11.02,0.66,0.693,0.692,0.748,0.666,0.676,0.711,0.737,0.683,0.,0.
"2014-10-20",00:26,14.764,13.429,14.79,13.45,13.521,14.7,83.4,-1.822,-1.021,337.5,384.1,-47.4,-0.499,0.,341.7,0,7999.,0.000,100,101.5596,5.379,6.513,4.698,5.69,238.528,4.177,5.65,234.922,0.4,14.973,15.012,14.838,14.494,14.532,13.913,13.81,-999.,-999.,14.499,-6.826,-0.74,-6.577,-11.083,0.66,0.693,0.691,0.75,0.666,0.675,0.711,0.736,0.683,0.,0.
"2014-10-20",00:27,14.748,13.432,14.82,13.46,13.485,14.73,83.4,-1.845,-1.027,340.8,384.,-44.0,-0.499,0.,344.8,0,7999.,0.000,100,101.5594,5.712,7.075,4.982,7.39,242.859,4.088,5.87,237.966,0.4,14.967,15.011,14.838,14.501,14.529,13.916,13.8,-999.,-999.,14.499,-6.808,-0.744,-6.564,-11.151,0.66,0.693,0.691,0.748,0.666,0.677,0.711,0.74,0.683,0.,0.
"2014-10-20",00:28,14.735,13.429,14.83,13.45,13.462,14.73,83.2,-1.851,-1.021,336.7,384.,-48.1,-0.499,0.,340.6,0,7999.,0.000,100,101.5589,7.021,7.95,6.633,8.53,237.801,5.229,6.94,240.002,0.4,14.963,15.004,14.835,14.494,14.519,13.916,13.774,-999.,-999.,14.503,-6.795,-0.751,-6.55,-11.24,0.66,0.694,0.69,0.748,0.666,0.675,0.711,0.735,0.683,0.,0.
"2014-10-20",00:29,14.745,13.422,14.81,13.45,13.432,14.71,83.5,-1.873,-1.027,334.3,384.,-50.5,-0.582,0.,338.4,0,7999.,0.000,100,101.5597,4.983,6.263,4.92,6.,234.266,4.276,5.4,231.798,0.4,14.967,15.004,14.831,14.494,14.523,13.923,13.755,-999.,-999.,14.499,-6.779,-0.759,-6.537,-11.346,0.66,0.695,0.69,0.749,0.666,0.675,0.711,0.737,0.684,0.,0.
"2014-10-20",00:30,14.693,13.409,14.82,13.45,13.436,14.71,83.4,-1.907,-1.033,327.2,383.7,-57.4,-0.665,0.,331.9,0,7999.,0.000,100,101.558,4.971,6.825,4.759,6.13,237.797,4.301,5.18,237.6,0.4,14.96,14.991,14.832,14.494,14.516,13.92,13.745,-999.,-999.,14.503,-6.765,-0.765,-6.523,-11.46,0.66,0.694,0.691,0.748,0.665,0.677,0.712,0.737,0.683,0.,0.
"2014-10-20",00:31,14.673,13.393,14.82,13.44,13.404,14.71,83.2,-1.959,-1.051,330.3,383.7,-54.3,-0.623,0.,335.1,0,7999.,0.000,100,101.5597,6.762,8.58,6.417,7.75,237.663,5.601,7.73,240.187,0.4,14.96,14.997,14.838,14.494,14.523,13.913,13.758,-999.,-999.,14.513,-6.753,-0.771,-6.51,-11.582,0.66,0.695,0.69,0.748,0.666,0.674,0.711,0.737,0.683,0.,0.
"2014-10-20",00:32,14.719,13.419,14.83,13.46,13.408,14.73,83.4,-1.953,-1.033,340.4,383.8,-44.3,-0.872,0.,344.9,0,7999.,0.000,100,101.5636,4.625,5.325,4.735,6.41,244.592,4.251,5.26,240.489,0.4,14.947,14.988,14.838,14.494,14.519,13.907,13.748,-999.,-999.,14.516,-6.742,-0.778,-6.497,-11.706,0.66,0.693,0.69,0.749,0.666,0.675,0.711,0.739,0.683,0.,0.
"2014-10-20",00:33,14.69,13.39,14.76,13.43,13.404,14.7,83.3,-1.942,-1.063,340.4,383.8,-44.3,-0.997,0.,344.4,0,7999.,0.000,100,101.5647,6.096,7.2,5.257,6.94,242.8,4.233,4.96,244.264,0.4,14.947,14.995,14.841,14.494,14.523,13.91,13.755,-999.,-999.,14.523,-6.733,-0.781,-6.485,-11.835,0.66,0.694,0.691,0.748,0.665,0.675,0.711,0.737,0.682,0.,0.
"2014-10-20",00:34,14.68,13.386,14.74,13.43,13.395,14.66,83.6,-1.913,-1.039,337.8,383.4,-46.5,-0.997,0.,341.7,0,7999.,0.000,100,101.5664,6.137,7.513,5.722,7.,241.658,4.149,5.41,239.93,0.4,14.94,14.984,14.832,14.494,14.509,13.907,13.765,-999.,-999.,14.53,-6.723,-0.788,-6.473,-11.975,0.66,0.694,0.69,0.747,0.666,0.673,0.712,0.737,0.682,0.,0.
"2014-10-20",00:35,14.807,13.426,14.78,13.44,13.385,14.69,83.6,-1.885,-1.027,343.1,384.3,-42.1,-0.997,0.,346.6,0,7999.,0.000,100,101.5655,6.6,9.26,6.206,8.11,239.363,4.871,6.38,236.799,0.4,14.944,14.993,14.832,14.494,14.506,13.91,13.765,-999.,-999.,14.534,-6.719,-0.795,-6.464,-12.12,0.66,0.694,0.69,0.75,0.666,0.675,0.711,0.737,0.683,0.,0.
"2014-10-20",00:36,14.875,13.435,14.87,13.45,13.404,14.75,83.,-1.851,-1.051,343.1,384.2,-41.9,-0.997,0.,346.7,0,7999.,0.000,100,101.561,8.28,9.14,7.745,9.23,247.199,6.471,7.53,248.6,0.4,14.94,14.996,14.835,14.494,14.513,13.907,13.762,-999.,-999.,14.53,-6.712,-0.801,-6.45,-12.265,0.66,0.694,0.691,0.748,0.666,0.675,0.711,0.736,0.683,0.,0.
"2014-10-20",00:37,14.905,13.442,14.96,13.5,13.407,14.83,82.9,-1.851,-1.069,336.6,383.8,-48.0,-0.997,0.,341.,0,7999.,0.000,100,101.5636,6.775,8.51,6.337,8.03,247.996,4.804,7.19,244.406,0.4,14.94,14.999,14.838,14.501,14.509,13.907,13.749,-999.,-999.,14.537,-6.711,-0.806,-6.44,-12.41,0.66,0.694,0.691,0.749,0.666,0.675,0.711,0.736,0.683,0.,0.
"2014-10-20",00:38,14.799,13.422,14.88,13.45,13.408,14.79,82.9,-1.896,-1.099,333.7,383.8,-50.9,-0.997,0.,338.1,0,7999.,0.000,100,101.5647,5.817,6.638,5.6,6.37,236.28,4.338,5.27,240.676,0.4,14.94,14.997,14.835,14.494,14.506,13.907,13.743,-999.,-999.,14.534,-6.706,-0.811,-6.432,-12.541,0.66,0.694,0.691,0.748,0.666,0.678,0.711,0.737,0.683,0.,0.
"2014-10-20",00:39,14.797,13.422,14.82,13.44,13.398,14.74,83.,-1.947,-1.105,331.5,383.6,-52.9,-0.997,0.,336.2,0,7999.,0.000,100,101.5616,6.262,8.45,5.78,7.38,241.802,5.057,8.2,240.393,0.4,14.937,15.002,14.828,14.494,14.509,13.907,13.733,-999.,-999.,14.53,-6.705,-0.817,-6.422,-12.655,0.66,0.694,0.69,0.749,0.666,0.674,0.712,0.736,0.683,0.,0.
"2014-10-20",00:40,14.823,13.416,14.83,13.45,13.395,14.75,83.1,-1.976,-1.105,339.3,383.4,-45.0,-0.997,0.,343.4,0,7999.,0.000,100,101.5599,7.304,9.01,6.511,7.76,239.872,5.407,6.67,234.473,0.4,14.94,15.001,14.835,14.494,14.509,13.904,13.727,-999.,-999.,14.534,-6.706,-0.823,-6.411,-12.754,0.66,0.693,0.691,0.748,0.665,0.676,0.71,0.739,0.683,0.,0.
"2014-10-20",00:41,14.836,13.419,14.86,13.44,13.394,14.76,82.7,-1.947,-1.093,341.5,384.,-43.4,-0.997,0.,345.4,0,7999.,0.000,100,101.5572,7.183,8.14,7.191,8.86,234.408,5.78,7.41,236.601,0.4,14.94,14.99,14.828,14.494,14.506,13.904,13.734,-999.,-999.,14.534,-6.711,-0.828,-6.403,-12.852,0.66,0.694,0.691,0.749,0.666,0.675,0.711,0.737,0.683,0.,0.
"2014-10-20",00:42,14.856,13.419,14.9,13.45,13.404,14.78,82.9,-1.925,-1.087,336.5,384.,-48.3,-0.997,0.,340.8,0,7999.,0.000,100,101.5575,5.767,6.575,5.941,7.02,235.402,4.707,5.94,235.938,0.4,14.934,14.986,14.835,14.494,14.509,13.904,13.721,-999.,-999.,14.534,-6.711,-0.833,-6.396,-12.951,0.66,0.693,0.691,0.748,0.666,0.675,0.712,0.736,0.682,0.,0.
"2014-10-20",00:43,14.85,13.416,14.91,13.46,13.408,14.8,82.7,-1.93,-1.081,338.2,384.,-46.6,-0.997,0.,342.8,0,7999.,0.000,100,101.5548,6.325,7.95,6.279,7.52,237.926,5.358,6.6,237.935,0.4,14.934,14.992,14.835,14.494,14.506,13.904,13.711,-999.,-999.,14.537,-6.716,-0.84,-6.388,-13.052,0.66,0.694,0.691,0.749,0.665,0.677,0.711,0.739,0.682,0.,0.
"2014-10-20",00:44,14.784,13.399,14.86,13.44,13.404,14.77,82.5,-1.93,-1.111,344.,383.8,-40.6,-0.997,0.,348.,0,7999.,0.000,100,101.5569,6.425,8.58,5.117,6.6,238.333,4.333,5.56,237.323,0.4,14.927,14.981,14.835,14.494,14.506,13.904,13.718,-999.,-999.,14.537,-6.722,-0.846,-6.383,-13.149,0.66,0.694,0.691,0.749,0.666,0.675,0.711,0.739,0.682,0.,0.
"2014-10-20",00:45,14.791,13.383,14.83,13.44,13.408,14.74,83.1,-1.896,-1.087,346.7,384.3,-38.4,-0.997,0.,350.2,0,7999.,0.000,100,101.5575,5.917,8.51,5.738,7.16,238.867,5.458,6.43,233.463,0.4,14.927,14.994,14.825,14.494,14.503,13.904,13.718,-999.,-999.,14.537,-6.73,-0.85,-6.377,-13.239,0.66,0.694,0.69,0.751,0.666,0.675,0.711,0.74,0.683,0.,0.
"2014-10-20",00:46,14.867,13.419,14.88,13.45,13.408,14.77,82.9,-1.851,-1.063,343.5,384.3,-41.6,-0.997,0.,347.4,0,7999.,0.000,100,101.5553,5.962,8.39,6.183,7.78,236.484,5.254,6.97,237.734,0.4,14.924,14.986,14.828,14.494,14.509,13.904,13.714,-999.,-999.,14.531,-6.739,-0.854,-6.371,-13.317,0.661,0.693,0.691,0.747,0.667,0.675,0.711,0.736,0.683,0.,0.
"2014-10-20",00:47,14.84,13.419,14.88,13.45,13.408,14.78,82.8,-1.862,-1.117,337.6,384.,-47.1,-0.997,0.,341.6,0,7999.,0.000,100,101.5574,6.792,10.89,6.269,7.63,235.73,5.623,6.84,239.791,0.4,14.921,14.988,14.819,14.494,14.503,13.9,13.711,-999.,-999.,14.537,-6.751,-0.861,-6.368,-13.387,0.661,0.693,0.691,0.747,0.666,0.675,0.711,0.736,0.683,0.,0.
"2014-10-20",00:48,14.837,13.423,14.92,13.45,13.408,14.8,82.9,-1.896,-1.111,337.3,383.9,-47.4,-0.997,0.,341.6,0,7999.,0.000,100,101.5501,8.67,10.7,8.457,10.44,247.814,6.404,7.65,249.796,0.4,14.924,14.988,14.822,14.494,14.506,13.894,13.708,-999.,-999.,14.534,-6.76,-0.866,-6.362,-13.457,0.66,0.693,0.691,0.749,0.666,0.675,0.711,0.737,0.684,0.,0.
"2014-10-20",00:49,14.831,13.413,14.93,13.46,13.411,14.83,82.3,-1.913,-1.081,335.8,383.6,-48.6,-0.997,0.,340.8,0,7999.,0.000,100,101.5541,7.058,7.95,6.994,8.17,239.658,5.564,6.87,240.926,0.4,14.924,14.99,14.822,14.494,14.506,13.894,13.691,-999.,-999.,14.537,-6.774,-0.869,-6.36,-13.518,0.661,0.693,0.69,0.752,0.665,0.677,0.711,0.737,0.683,0.,0.
"2014-10-20",00:50,14.735,13.36,14.89,13.44,13.408,14.8,82.6,-1.913,-1.099,352.3,383.9,-32.4,-0.789,0.,356.2,0,7999.,0.000,100,101.5553,6.758,7.638,5.947,8.29,241.466,4.353,6.08,238.863,0.4,14.924,14.984,14.822,14.494,14.506,13.9,13.678,-999.,-999.,14.534,-6.786,-0.876,-6.358,-13.566,0.66,0.693,0.691,0.748,0.665,0.675,0.712,0.736,0.683,0.,0.
"2014-10-20",00:51,14.755,13.383,14.8,13.42,13.404,14.72,82.9,-1.879,-1.087,341.3,384.1,-43.6,-0.997,0.,344.6,0,7999.,0.000,100,101.5539,7.717,8.89,7.393,9.33,242.064,4.765,6.45,241.398,0.4,14.924,14.986,14.819,14.494,14.503,13.887,13.655,-999.,-999.,14.537,-6.799,-0.881,-6.356,-13.609,0.66,0.693,0.691,0.749,0.665,0.676,0.712,0.735,0.683,0.,0.
"2014-10-20",00:52,14.765,13.389,14.83,13.44,13.398,14.74,83.1,-1.885,-1.069,328.2,383.4,-56.0,-0.997,0.,332.8,0,7999.,0.000,100,101.5543,6.504,8.08,6.573,8.79,242.471,5.366,6.75,239.473,0.4,14.921,14.997,14.819,14.494,14.503,13.891,13.655,-999.,-999.,14.537,-6.815,-0.887,-6.354,-13.647,0.66,0.695,0.69,0.749,0.665,0.677,0.711,0.736,0.683,0.,0.
"2014-10-20",00:53,14.788,13.383,14.84,13.45,13.381,14.75,83.,-1.953,-1.075,325.3,383.1,-58.7,-0.914,0.,330.6,0,7999.,0.000,100,101.5531,6.942,8.01,5.908,7.31,241.668,4.465,5.77,240.533,0.4,14.921,14.988,14.819,14.494,14.503,13.891,13.642,-999.,-999.,14.537,-6.829,-0.892,-6.356,-13.69,0.66,0.693,0.69,0.748,0.665,0.677,0.711,0.736,0.683,0.,0.
"2014-10-20",00:54,14.683,13.337,14.8,13.41,13.352,14.72,82.9,-2.021,-1.087,330.4,383.1,-53.6,-0.914,0.,335.6,0,7999.,0.000,100,101.5534,4.783,5.95,4.94,6.2,236.577,4.227,5.88,230.452,0.4,14.914,14.985,14.819,14.494,14.513,13.891,13.635,-999.,-999.,14.537,-6.846,-0.898,-6.356,-13.733,0.659,0.693,0.69,0.748,0.666,0.675,0.711,0.737,0.683,0.,0.
"2014-10-20",00:55,14.736,13.357,14.76,13.39,13.332,14.68,83.1,-2.004,-1.069,351.7,383.6,-32.8,-0.997,0.,355.7,0,7999.,0.000,100,101.5572,6.246,7.263,6.047,7.63,234.397,5.119,7.06,234.859,0.4,14.901,14.99,14.822,14.494,14.503,13.887,13.632,-999.,-999.,14.537,-6.86,-0.901,-6.359,-13.775,0.661,0.693,0.691,0.749,0.666,0.675,0.711,0.736,0.683,0.,0.
"2014-10-20",00:56,14.758,13.37,14.79,13.43,13.349,14.69,83.1,-1.907,-1.081,341.,383.9,-43.7,-0.997,0.,344.2,0,7999.,0.000,100,101.5575,6.121,7.013,6.055,7.31,239.,4.631,6.33,240.841,0.4,14.911,14.98,14.822,14.494,14.513,13.887,13.636,-999.,-999.,14.537,-6.875,-0.908,-6.358,-13.825,0.659,0.695,0.69,0.749,0.666,0.675,0.711,0.74,0.682,0.,0.
"2014-10-20",00:57,14.719,13.354,14.76,13.41,13.326,14.67,83.5,-1.925,-1.099,328.5,383.1,-55.4,-0.997,0.,333.,0,7999.,0.000,100,101.5569,6.058,6.825,5.63,6.94,240.403,4.161,5.11,236.199,0.4,14.901,14.969,14.819,14.494,14.51,13.881,13.639,-999.,-999.,14.537,-6.892,-0.911,-6.363,-13.887,0.66,0.694,0.691,0.748,0.666,0.675,0.711,0.736,0.683,0.,0.
"2014-10-20",00:58,14.68,13.35,14.73,13.39,13.309,14.65,83.4,-1.964,-1.075,328.7,382.7,-54.9,-0.914,0.,333.8,0,7999.,0.000,100,101.5586,4.979,6.263,5.001,6.43,243.996,4.355,6.09,240.998,0.4,14.891,14.997,14.819,14.494,14.506,13.884,13.639,-999.,-999.,14.531,-6.908,-0.918,-6.364,-13.962,0.66,0.693,0.691,0.749,0.666,0.675,0.711,0.736,0.683,0.,0.
"2014-10-20",00:59,14.601,13.317,14.65,13.36,13.296,14.58,83.9,-2.004,-1.069,335.4,382.5,-48.0,-0.789,0.,340.1,0,7999.,0.000,100,101.556,5.7,6.45,5.096,6.16,238.193,3.903,5.58,234.319,0.4,14.895,14.984,14.819,14.494,14.513,13.897,13.639,-999.,-999.,14.534,-6.923,-0.923,-6.37,-14.031,0.66,0.694,0.691,0.749,0.666,0.676,0.71,0.743,0.682,0.,0.
"2014-10-20",01:00,14.676,13.354,14.63,13.36,13.27,14.55,84.,-1.97,-1.045,333.9,383.2,-50.2,-0.997,0.,338.,0,7999.,0.000,100,101.5535,5.804,6.763,5.445,6.58,240.018,4.302,5.74,244.131,0.4,14.885,14.988,14.822,14.491,14.503,13.887,13.639,-999.,-999.,14.527,-6.94,-0.928,-6.374,-14.089,0.66,0.695,0.69,0.75,0.666,0.674,0.711,0.737,0.683,0.,0.
"2014-10-20",01:01,14.673,13.344,14.63,13.37,13.267,14.56,83.9,-1.976,-1.063,333.5,382.8,-50.2,-0.997,0.,338.4,0,7999.,0.000,100,101.5511,6.254,8.26,5.691,7.71,238.59,4.003,5.12,234.705,0.4,14.875,14.977,14.822,14.494,14.5,13.864,13.639,-999.,-999.,14.527,-6.955,-0.934,-6.379,-14.148,0.659,0.695,0.69,0.747,0.668,0.674,0.711,0.739,0.683,0.,0.
"2014-10-20",01:02,14.663,13.357,14.6,13.35,13.247,14.53,84.4,-1.942,-1.069,342.7,383.4,-41.6,-0.997,0.,346.8,0,7999.,0.000,100,101.5542,5.796,6.888,5.725,7.85,241.581,4.575,5.78,240.8,0.4,14.872,14.983,14.822,14.494,14.506,13.871,13.633,-999.,-999.,14.531,-6.97,-0.939,-6.386,-14.214,0.661,0.693,0.69,0.748,0.666,0.675,0.711,0.737,0.683,0.,0.
"2014-10-20",01:03,14.709,13.373,14.62,13.36,13.251,14.51,84.3,-1.89,-1.045,348.8,383.7,-35.7,-0.997,0.,352.,0,7999.,0.000,100,101.5513,5.65,7.325,5.079,6.97,244.268,4.122,5.45,245.138,0.4,14.872,14.982,14.822,14.494,14.52,13.871,13.603,-999.,-999.,14.534,-6.985,-0.945,-6.391,-14.291,0.662,0.693,0.691,0.748,0.665,0.674,0.711,0.736,0.683,0.,0.
"2014-10-20",01:04,14.722,13.367,14.61,13.37,13.273,14.51,84.4,-1.816,-1.057,352.4,383.6,-32.0,-0.997,0.,356.,0,7999.,0.000,100,101.5495,6.121,7.013,5.945,7.63,237.232,4.487,6.02,237.054,0.4,14.862,14.974,14.819,14.494,14.51,13.864,13.6,-999.,-999.,14.534,-7.002,-0.95,-6.397,-14.369,0.659,0.693,0.691,0.749,0.665,0.673,0.711,0.736,0.682,0.,0.
"2014-10-20",01:05,14.736,13.38,14.63,13.39,13.287,14.54,84.4,-1.771,-1.063,346.2,383.6,-38.1,-0.997,0.,349.8,0,7999.,0.000,100,101.5493,5.062,5.888,5.299,6.52,241.396,4.16,4.89,243.669,0.4,14.868,14.968,14.819,14.494,14.517,13.884,13.587,-999.,-999.,14.531,-7.02,-0.954,-6.402,-14.448,0.66,0.694,0.69,0.75,0.666,0.675,0.711,0.736,0.683,0.,0.
"2014-10-20",01:06,14.67,13.361,14.63,13.39,13.287,14.54,84.7,-1.777,-1.093,341.4,383.5,-42.8,-0.956,0.,345.4,0,7999.,0.000,100,101.5495,6.083,8.2,5.869,8.03,241.204,4.357,5.19,243.323,0.4,14.865,14.997,14.822,14.491,14.513,13.874,13.577,-999.,-999.,14.531,-7.035,-0.959,-6.411,-14.523,0.66,0.694,0.69,0.749,0.665,0.675,0.711,0.737,0.683,0.,0.
"2014-10-20",01:07,14.65,13.364,14.68,13.39,13.306,14.56,84.5,-1.782,-1.069,350.4,383.4,-33.7,-0.872,0.,354.,0,7999.,0.000,100,101.5488,6.404,8.51,6.686,8.72,238.67,6.,8.1,239.119,0.4,14.865,14.974,14.819,14.494,14.506,13.871,13.577,-999.,-999.,14.524,-7.053,-0.967,-6.417,-14.586,0.66,0.693,0.69,0.748,0.667,0.675,0.711,0.737,0.683,0.,0.
"2014-10-20",01:08,14.64,13.367,14.65,13.38,13.309,14.56,84.1,-1.759,-1.069,353.6,384.,-31.1,-0.997,0.,356.7,0,7999.,0.000,100,101.5514,5.504,6.45,5.193,6.52,238.522,4.006,5.47,241.885,0.4,14.865,14.984,14.822,14.491,14.503,13.861,13.58,-999.,-999.,14.521,-7.067,-0.97,-6.426,-14.63,0.66,0.694,0.691,0.749,0.666,0.674,0.711,0.738,0.683,0.,0.
"2014-10-20",01:09,14.716,13.407,14.69,13.4,13.326,14.59,84.1,-1.731,-1.051,336.9,384.,-47.8,-0.997,0.,341.1,0,7999.,0.000,100,101.5508,5.567,6.825,5.462,7.15,251.271,3.901,4.83,247.94,0.4,14.865,14.995,14.819,14.494,14.503,13.864,13.577,-999.,-999.,14.518,-7.084,-0.978,-6.432,-14.657,0.662,0.693,0.691,0.75,0.666,0.675,0.711,0.737,0.682,0.,0.